Location: Beekmeers
(50.8953°N, 3.6968°E)
Time: 14:09:42
(UTC+00:00)

Cosmos 1346 Rocket - Pass Details

Date: 23 May 2024
Orbit: 508 x 521 km, 81.2° (Epoch: 16 June)

Event Time Altitude Azimuth Distance (km) Brightness Sun altitude
Rises 00:38:28 0° 346° (NNW) 2,662 7.4 -17.4°
Reaches altitude 10° 00:40:37 10° 346° (NNW) 1,770 6.3 -17.3°
Maximum altitude 00:44:30 83° 260° (W) 534 2.6 -17.1°
Enters shadow 00:45:57 37° 175° (S) 824 3.2 -17.1°
